Flag Weather past 2 weeks in Dorsten, North Rhine-Westphalia, Germany

Now
41 °F

Fog.


Feels Like: 41 °F
Forecast: 36 / 42 °F
Wind: 1 mph from East

Location: Essen

Current Time: Nov 28, 2014 at 4:22:55 AM

Latest Report: Nov 28, 2014 at 4:00 AM


Visibility: 4 mi

Pressure: 29.78 "Hg

Humidity: 94%

Dew point: 39 °F

Location of DorstenLocation

Historic Weather in Dorsten — Graph

°F

Dorsten temperature yesterday

Maximum temperature yesterday: 47 °F (at 2:00 PM)
Minimum temperature yesterday: 42 °F (at 7:00 AM)
Average temperature yesterday: 44 °F

Past Weeks' High & Low Weather Summary

 TemperatureHumidityPressure
High59 °F (Nov 23, 2:00 PM)100% (Nov 13, 5:00 AM)30.36 "Hg (Nov 13, 5:00 AM)
Low33 °F (Nov 26, 6:00 AM)57% (Nov 24, 2:00 PM)29.50 "Hg (Nov 16, 3:00 PM)
Average46 °F87%29.96 "Hg
* Reported Nov 13 3:00 AM — Nov 28 3:00 AM, Dorsten, Weather by CustomWeather, © 2014

Note: Actual official high and low records may vary slightly from our data, if they occured in-between our weather recording intervals... More about our weather records

Advertising

Dorsten weather history for previous 24 hours

 ConditionsComfort  
Time TempWeatherWind HumidityBarometerVisibility
3:00 AM
Nov 28
40 °FFog.1 mph94%29.78 "Hg4 mi
2:00 AM42 °FFog.5 mph91%29.77 "Hg4 mi
1:00 AM42 °FFog.7 mph92%29.78 "Hg4 mi
12:00 AM43 °FOvercast.3 mph88%29.77 "Hg6 mi
11:00 PM
Nov 27
44 °FOvercast.5 mph90%29.76 "Hg6 mi
10:00 PM44 °FDrizzle. Overcast.3 mph96%29.76 "Hg4 mi
9:00 PM43 °FLow clouds.2 mph95%29.76 "Hg4 mi
8:00 PM43 °FLight rain. Low clouds.3 mph92%29.76 "Hg5 mi
7:00 PM44 °FLight rain. Low clouds.3 mph91%29.76 "Hg5 mi
6:00 PM45 °FLight rain. Overcast.5 mph85%29.76 "Hg5 mi
5:00 PM44 °FLight freezing rain. Low clouds.5 mph87%29.75 "Hg5 mi
4:00 PM45 °FLight freezing rain. Overcast.3 mph85%29.76 "Hg5 mi
3:00 PM46 °FLight rain. Low clouds.3 mph78%29.76 "Hg6 mi
2:00 PM47 °FOvercast.3 mph76%29.77 "Hg10 mi
1:00 PM47 °FOvercast.3 mph78%29.78 "Hg8 mi
12:00 PM46 °FOvercast.5 mph79%29.79 "Hg8 mi
11:00 AM46 °FOvercast.2 mph80%29.81 "Hg6 mi
10:00 AM44 °FOvercast.2 mph83%29.81 "Hg6 mi
9:00 AM44 °FOvercast.2 mph85%29.81 "Hg6 mi
8:00 AM44 °FOvercast.3 mph85%29.81 "Hg6 mi
7:00 AM42 °FOvercast.2 mph87%29.81 "Hg6 mi
6:00 AM43 °FOvercast.2 mph85%29.82 "Hg7 mi
5:00 AM43 °FOvercast.3 mph84%29.83 "Hg7 mi
4:00 AM43 °FOvercast.3 mph85%29.83 "Hg7 mi
Weather by CustomWeather, © 2014

See weather overviewHow to use our weather pages